Radiation Dose at Monitoring Post of Fukushima Daini Nuclear Power Station
Date,Time,MP-1(microSv/h),MP-2(microSv/h),MP-3(microSv/h),MP-4(microSv/h),MP-5(microSv/h),MP-6(microSv/h),MP-7(microSv/h),Wind Direction,Wind Velocity(m/s),Rain
2016/04/26,00:00,0.453,0.261,0.473,0.418,0.391,0.214,0.185,south-southwest,6.8,No
2016/04/26,00:10,0.451,0.262,0.472,0.418,0.391,0.213,0.184,south-southwest,6.5,No
2016/04/26,00:20,0.454,0.261,0.473,0.417,0.392,0.212,0.185,south-southwest,6.4,No
2016/04/26,00:30,0.452,0.262,0.471,0.419,0.391,0.213,0.185,south-southwest,5.9,No
2016/04/26,00:40,0.454,0.262,0.474,0.418,0.394,0.213,0.184,south-southwest,6.2,No
2016/04/26,00:50,0.453,0.261,0.468,0.421,0.392,0.213,0.185,south-southwest,7.0,No
2016/04/26,01:00,0.453,0.264,0.475,0.417,0.392,0.213,0.184,south-southwest,6.6,No
2016/04/26,01:10,0.454,0.262,0.473,0.419,0.393,0.213,0.186,south-southwest,6.2,No
2016/04/26,01:20,0.453,0.261,0.474,0.417,0.391,0.213,0.185,south-southwest,7.1,No
2016/04/26,01:30,0.455,0.261,0.473,0.417,0.394,0.214,0.185,south-southwest,5.9,No
2016/04/26,01:40,0.450,0.261,0.473,0.419,0.391,0.212,0.185,south-southwest,4.6,No
2016/04/26,01:50,0.453,0.262,0.474,0.416,0.391,0.213,0.185,south,4.0,No
2016/04/26,02:00,0.454,0.262,0.471,0.419,0.391,0.212,0.185,south,5.4,No
2016/04/26,02:10,0.452,0.261,0.475,0.419,0.391,0.213,0.185,south,4.6,No
2016/04/26,02:20,0.455,0.262,0.472,0.418,0.391,0.212,0.185,south-southwest,4.9,No
2016/04/26,02:30,0.451,0.263,0.473,0.419,0.391,0.212,0.185,south-southwest,3.7,No
2016/04/26,02:40,0.456,0.262,0.473,0.418,0.393,0.213,0.185,south-southwest,3.1,No
2016/04/26,02:50,0.451,0.264,0.473,0.419,0.391,0.213,0.185,south-southwest,3.2,No
2016/04/26,03:00,0.454,0.263,0.475,0.419,0.391,0.212,0.185,south-southwest,3.7,No
2016/04/26,03:10,0.455,0.262,0.472,0.419,0.392,0.214,0.185,south-southwest,3.0,No
2016/04/26,03:20,0.451,0.264,0.475,0.422,0.393,0.213,0.185,south,1.9,No
2016/04/26,03:30,0.454,0.261,0.472,0.416,0.393,0.213,0.185,south,1.1,No
2016/04/26,03:40,0.451,0.262,0.472,0.420,0.392,0.213,0.185,east-northeast,0.5,No
2016/04/26,03:50,0.454,0.264,0.476,0.421,0.392,0.214,0.186,north-northeast,2.2,No
2016/04/26,04:00,0.455,0.262,0.474,0.419,0.392,0.213,0.185,north-northeast,2.8,No
2016/04/26,04:10,0.453,0.262,0.475,0.420,0.392,0.213,0.186,north,3.1,No
2016/04/26,04:20,0.455,0.262,0.474,0.418,0.392,0.213,0.185,north-northeast,3.3,No
2016/04/26,04:30,0.451,0.261,0.472,0.420,0.394,0.213,0.184,north-northeast,3.8,No
2016/04/26,04:40,0.453,0.263,0.476,0.419,0.391,0.213,0.185,north,3.4,No
2016/04/26,04:50,0.455,0.262,0.471,0.419,0.392,0.213,0.185,north,2.5,No
2016/04/26,05:00,0.452,0.261,0.475,0.418,0.392,0.214,0.186,north-northeast,2.2,No
2016/04/26,05:10,0.454,0.263,0.473,0.419,0.391,0.214,0.185,north-northeast,1.9,No
2016/04/26,05:20,0.451,0.262,0.472,0.417,0.392,0.213,0.186,north-northeast,1.6,No
2016/04/26,05:30,0.454,0.261,0.475,0.419,0.392,0.212,0.185,northeast,1.4,No
2016/04/26,05:40,0.453,0.262,0.472,0.419,0.390,0.213,0.186,east-northeast,0.9,No
2016/04/26,05:50,0.450,0.261,0.474,0.421,0.391,0.214,0.184,east-northeast,1.1,No
2016/04/26,06:00,0.453,0.262,0.472,0.418,0.390,0.212,0.185,east,0.7,No
2016/04/26,06:10,0.450,0.261,0.471,0.417,0.392,0.213,0.184,south-southeast,1.4,No
2016/04/26,06:20,0.455,0.262,0.474,0.419,0.390,0.213,0.185,south,1.6,No
2016/04/26,06:30,0.452,0.262,0.472,0.416,0.394,0.213,0.186,south,1.6,No
2016/04/26,06:40,0.453,0.261,0.472,0.418,0.392,0.213,0.183,south,3.6,No
2016/04/26,06:50,0.451,0.262,0.472,0.416,0.392,0.213,0.185,south-southwest,3.7,No
2016/04/26,07:00,0.451,0.261,0.473,0.419,0.391,0.213,0.184,south,4.3,No
2016/04/26,07:10,0.453,0.263,0.469,0.417,0.392,0.212,0.184,south,5.9,No
2016/04/26,07:20,0.451,0.261,0.473,0.417,0.391,0.213,0.185,south-southwest,7.3,No
2016/04/26,07:30,0.453,0.262,0.469,0.414,0.391,0.212,0.184,south-southwest,6.7,No
2016/04/26,07:40,0.451,0.259,0.474,0.418,0.394,0.213,0.185,south-southwest,6.6,No
2016/04/26,07:50,0.455,0.262,0.470,0.416,0.391,0.213,0.184,south,6.6,No
2016/04/26,08:00,0.451,0.260,0.476,0.413,0.394,0.212,0.183,south,6.9,No
2016/04/26,08:10,0.455,0.262,0.470,0.419,0.393,0.214,0.185,south,6.6,No
2016/04/26,08:20,0.451,0.263,0.475,0.416,0.391,0.214,0.184,south,7.7,No
2016/04/26,08:30,0.449,0.258,0.470,0.415,0.393,0.212,0.184,south,8.9,No
2016/04/26,08:40,0.453,0.262,0.474,0.417,0.390,0.214,0.185,south,9.2,No
2016/04/26,08:50,0.448,0.261,0.471,0.414,0.391,0.211,0.182,south,9.6,No
2016/04/26,09:00,0.450,0.259,0.471,0.412,0.392,0.212,0.184,south,9.0,No
2016/04/26,09:10,0.453,0.261,0.473,0.419,0.389,0.212,0.185,south,9.9,No
2016/04/26,09:20,0.448,0.261,0.470,0.418,0.391,0.213,0.183,south,11.7,No
2016/04/26,09:30,0.446,0.260,0.476,0.413,0.393,0.212,0.184,south,12.0,No
2016/04/26,09:40,0.452,0.260,0.473,0.414,0.391,0.212,0.185,south,13.5,No
2016/04/26,09:50,0.451,0.263,0.472,0.417,0.390,0.212,0.185,south,12.6,No
2016/04/26,10:00,0.449,0.262,0.475,0.419,0.394,0.212,0.183,south,14.3,No
2016/04/26,10:10,0.455,0.261,0.470,0.414,0.391,0.213,0.186,south,14.9,No
2016/04/26,10:20,0.453,0.262,0.467,0.412,0.388,0.213,0.184,south,15.4,No
2016/04/26,10:30,0.449,0.261,0.472,0.417,0.392,0.213,0.183,south,14.4,No
2016/04/26,10:40,0.446,0.260,0.471,0.418,0.394,0.211,0.185,south,13.4,No
2016/04/26,10:50,0.453,0.260,0.467,0.416,0.390,0.212,0.184,south,15.4,No
2016/04/26,11:00,0.455,0.262,0.467,0.414,0.389,0.212,0.184,south,14.0,No
2016/04/26,11:10,0.450,0.261,0.473,0.418,0.394,0.213,0.185,south,14.8,No
2016/04/26,11:20,0.448,0.261,0.474,0.421,0.392,0.211,0.185,south,13.7,No
2016/04/26,11:30,0.452,0.263,0.470,0.417,0.389,0.211,0.184,south,14.0,No
2016/04/26,11:40,0.456,0.262,0.466,0.413,0.393,0.213,0.186,south,15.1,No
2016/04/26,11:50,0.453,0.260,0.473,0.420,0.393,0.212,0.184,south,17.3,No
2016/04/26,12:00,0.448,0.262,0.472,0.420,0.390,0.212,0.185,south,14.1,No
2016/04/26,12:10,0.454,0.263,0.470,0.417,0.391,0.213,0.187,south,16.7,No
2016/04/26,12:20,0.454,0.260,0.468,0.417,0.394,0.212,0.185,south,15.8,No
2016/04/26,12:30,0.451,0.263,0.470,0.422,0.392,0.213,0.184,south,14.3,No
2016/04/26,12:40,0.449,0.263,0.476,0.418,0.390,0.213,0.186,south,14.8,No
2016/04/26,12:50,0.457,0.262,0.474,0.415,0.394,0.212,0.184,south,15.1,No
2016/04/26,13:00,0.454,0.260,0.471,0.417,0.394,0.212,0.185,south,17.0,No
2016/04/26,13:10,0.450,0.262,0.469,0.423,0.390,0.214,0.186,south,16.1,No
2016/04/26,13:20,0.454,0.262,0.469,0.419,0.390,0.214,0.185,south,15.0,No
2016/04/26,13:30,0.456,0.259,0.475,0.416,0.395,0.213,0.185,south,16.0,No
2016/04/26,13:40,0.452,0.263,0.474,0.423,0.393,0.214,0.185,south,15.6,No
2016/04/26,13:50,0.453,0.263,0.472,0.420,0.392,0.213,0.183,south,17.8,No
2016/04/26,14:00,0.456,0.260,0.469,0.417,0.397,0.212,0.185,south,16.9,No
2016/04/26,14:10,0.453,0.263,0.475,0.419,0.392,0.213,0.187,south,16.4,No
2016/04/26,14:20,0.450,0.262,0.477,0.422,0.389,0.213,0.184,south,16.3,No
2016/04/26,14:30,0.455,0.260,0.472,0.418,0.392,0.213,0.186,south,15.6,No
2016/04/26,14:40,0.453,0.263,0.469,0.416,0.394,0.213,0.185,south,15.7,No
2016/04/26,14:50,0.451,0.263,0.472,0.423,0.390,0.213,0.184,south,14.9,No
2016/04/26,15:00,0.456,0.262,0.475,0.418,0.390,0.212,0.187,south,14.3,No
2016/04/26,15:10,0.453,0.262,0.475,0.418,0.394,0.212,0.186,south,13.7,No
2016/04/26,15:20,0.453,0.263,0.469,0.423,0.393,0.213,0.185,south,15.0,No
2016/04/26,15:30,0.456,0.261,0.479,0.417,0.390,0.212,0.186,south,14.1,No
2016/04/26,15:40,0.452,0.264,0.477,0.422,0.394,0.214,0.186,south,14.3,No
2016/04/26,15:50,0.456,0.263,0.473,0.419,0.394,0.213,0.185,south,11.5,No
2016/04/26,16:00,0.455,0.263,0.479,0.421,0.390,0.212,0.186,south,11.0,No
2016/04/26,16:10,0.452,0.264,0.474,0.422,0.397,0.214,0.187,south,10.4,No
2016/04/26,16:20,0.458,0.263,0.475,0.419,0.393,0.213,0.185,south,9.2,No
2016/04/26,16:30,0.452,0.264,0.476,0.422,0.391,0.213,0.186,south-southwest,8.6,No
2016/04/26,16:40,0.456,0.261,0.472,0.417,0.397,0.212,0.185,south,6.9,No
2016/04/26,16:50,0.455,0.266,0.479,0.420,0.392,0.212,0.187,south-southwest,3.3,No
2016/04/26,17:00,0.450,0.262,0.474,0.421,0.391,0.212,0.185,southwest,2.8,No
2016/04/26,17:10,0.458,0.263,0.473,0.417,0.396,0.212,0.186,-,CALM,No
2016/04/26,17:20,0.452,0.265,0.476,0.422,0.391,0.214,0.186,north-northeast,1.6,No
2016/04/26,17:30,0.454,0.262,0.472,0.417,0.392,0.213,0.187,north-northeast,2.5,No
2016/04/26,17:40,0.456,0.265,0.477,0.423,0.396,0.213,0.185,northeast,1.9,No
2016/04/26,17:50,0.452,0.261,0.476,0.419,0.390,0.213,0.186,east,1.6,No
2016/04/26,18:00,0.456,0.263,0.475,0.421,0.395,0.213,0.185,south-southeast,1.8,No
2016/04/26,18:10,0.451,0.261,0.478,0.421,0.393,0.215,0.187,south-southeast,1.6,No
2016/04/26,18:20,0.458,0.264,0.472,0.420,0.395,0.213,0.185,south-southeast,1.6,No
2016/04/26,18:30,0.453,0.260,0.478,0.422,0.392,0.214,0.186,south,2.8,No
2016/04/26,18:40,0.456,0.264,0.474,0.419,0.395,0.212,0.186,south-southwest,3.1,No
2016/04/26,18:50,0.454,0.261,0.477,0.422,0.394,0.213,0.186,south-southwest,2.8,No
2016/04/26,19:00,0.455,0.265,0.474,0.417,0.393,0.212,0.186,south-southwest,1.4,No
2016/04/26,19:10,0.454,0.262,0.476,0.423,0.394,0.213,0.185,southwest,0.7,No
2016/04/26,19:20,0.455,0.264,0.474,0.420,0.394,0.214,0.186,-,CALM,No
2016/04/26,19:30,0.455,0.261,0.478,0.423,0.395,0.213,0.185,-,CALM,No
2016/04/26,19:40,0.454,0.264,0.472,0.420,0.393,0.215,0.185,-,CALM,No
2016/04/26,19:50,0.454,0.262,0.478,0.423,0.394,0.213,0.187,north-northwest,0.7,No
2016/04/26,20:00,0.456,0.263,0.474,0.421,0.394,0.214,0.185,north,1.6,No
2016/04/26,20:10,0.454,0.263,0.477,0.421,0.393,0.212,0.186,north,1.9,No
2016/04/26,20:20,0.456,0.263,0.475,0.422,0.396,0.214,0.185,north,2.5,No
2016/04/26,20:30,0.453,0.263,0.477,0.421,0.392,0.213,0.185,north,2.5,No
2016/04/26,20:40,0.456,0.262,0.475,0.421,0.396,0.214,0.187,north,4.3,No
2016/04/26,20:50,0.454,0.263,0.479,0.420,0.392,0.213,0.185,north,7.3,No
2016/04/26,21:00,0.455,0.263,0.474,0.421,0.397,0.213,0.186,north-northeast,7.2,No
2016/04/26,21:10,0.452,0.263,0.477,0.421,0.392,0.214,0.185,north,6.4,No
2016/04/26,21:20,0.456,0.263,0.475,0.422,0.395,0.214,0.186,north,6.2,No
2016/04/26,21:30,0.453,0.263,0.476,0.420,0.393,0.213,0.186,north,7.3,No
2016/04/26,21:40,0.455,0.262,0.473,0.422,0.393,0.212,0.186,north,6.4,No
2016/04/26,21:50,0.453,0.263,0.478,0.420,0.393,0.213,0.185,north,9.1,No
2016/04/26,22:00,0.454,0.265,0.477,0.422,0.393,0.213,0.186,north,6.2,No
2016/04/26,22:10,0.454,0.262,0.477,0.419,0.395,0.212,0.185,north,6.1,No
2016/04/26,22:20,0.454,0.261,0.476,0.421,0.392,0.213,0.185,north,9.3,No
2016/04/26,22:30,0.457,0.265,0.474,0.421,0.395,0.213,0.186,north,9.0,No
2016/04/26,22:40,0.452,0.263,0.478,0.419,0.393,0.214,0.186,north-northwest,7.2,No
2016/04/26,22:50,0.456,0.263,0.474,0.422,0.391,0.213,0.186,north,9.4,No
2016/04/26,23:00,0.454,0.262,0.479,0.420,0.394,0.214,0.186,north,9.1,No
2016/04/26,23:10,0.455,0.261,0.475,0.422,0.393,0.212,0.186,north-northwest,8.3,No
2016/04/26,23:20,0.453,0.264,0.478,0.419,0.394,0.213,0.186,north-northwest,6.9,No
2016/04/26,23:30,0.454,0.261,0.476,0.421,0.393,0.213,0.186,north,8.6,No
2016/04/26,23:40,0.455,0.263,0.475,0.423,0.394,0.214,0.186,north,10.1,No
2016/04/26,23:50,0.455,0.263,0.477,0.420,0.395,0.214,0.187,north,9.4,No
